STARLINK-2157 (47743 NORAD) Tracking and Keplerian Element Data

This shows tracking and keplerian element data for the satellite.

Feedback or suggestion? Click here.




ElementValue
Catalog47743
NameSTARLINK-2157
Epoch Orbit176
Epoch Day170.58334491
Epoch Year2021
RAAN21.4175
Inclination53.0532
Eccentricity0.0001635
Argument of Perigee93.609
Mean Anonmoly276.4655
Mean Motion15.0638804
Decay Rate0.00021416
L11 47743U 21017X 21170.58334491 .00021416 00000-0 14527-2 0 9999
L22 47743 53.0532 21.4175 0001635 93.6090 276.4655 15.06388040 1761

Live tracking and technical data element details for STARLINK-2157 (NORAD 47743). STARLINK-2157 can be tracked NOW for your location showing map with azimuth and elevation plus other details from your city location.

Track the satellite on the map from your city or location and see movement details for azimuth, elevation, latitude, longitude, range, height, and movement on the map or in text.







IsCatalogInMostPopularTable: catalog: 47743, numindb: 42
Update: records affected: 1



GetName: 47743 STARLINK-2157

Hit Count: updated at: Mon, 21 Jun 2021 04:56:35 GMT